Regional Weather Roundup
Issued by NWS Little Rock, AR

Home | Current Version | Previous Version | Graphics & Text | Print | Product List | Glossary On
Versions: 1 2 3 4 5 6 7 8 9 10 11 12 13 14 15 16 17 18 19 20 21 22 23 24 25 26 27 28 29 30 31 32 33 34 35 36 37 38 39 40 41 42 43 44 45 46 47 48 49 50
000
ASUS44 KLZK 311605
RWRLZK

WEATHER ROUNDUP FOR ARKANSAS
NATIONAL WEATHER SERVICE LITTLE ROCK AR
1100 AM CDT TUE MAY 31 2016

NOTE: "FAIR" INDICATES FEW OR NO CLOUDS BELOW 12,000 FEET WITH NO
SIGNIFICANT WEATHER AND/OR OBSTRUCTIONS TO VISIBILITY.

ARZ001-003-010-029-311700-
NORTHWEST ARKANSAS

CITY           SKY/WX    TMP DP  RH WIND       PRES   REMARKS
FAYETTEVILLE   PTSUNNY   72  66  81 VRB5      29.98S
FORT SMITH     CLOUDY    77  65  66 E7        29.94F
HARRISON       CLOUDY    72  63  73 SE7       29.99F
BENTONVILLE    CLOUDY    73  63  68 W7        29.99F
ROGERS         CLOUDY    73  66  78 W6        29.99S
SILOAM SPGS    PTSUNNY   73  61  64 W3        29.99F
HIGHFILL       CLOUDY    74  68  81 SW7       29.98S
SPRINGDALE       N/A     73  66  78 CALM      30.00S
$$

ARZ004-005-016-311700-
NORTH CENTRAL ARKANSAS

CITY           SKY/WX    TMP DP  RH WIND       PRES   REMARKS
BATESVILLE     PTSUNNY   77  68  73 SE5       29.98F
FLIPPIN        CLOUDY   N/A N/A N/A E7        29.95F
MTN HOME       PTSUNNY   73  65  75 E6        29.98F
$$

ARZ040-041-311700-
WEST CENTRAL ARKANSAS

CITY           SKY/WX    TMP DP  RH WIND       PRES   REMARKS
MENA           SUNNY     79  72  78 NW3       29.95F
MOUNT IDA      PTSUNNY   76  68  76 CALM      29.92F
$$

ARZ009-017-025-026-028-311700-
NORTHEAST ARKANSAS

CITY           SKY/WX    TMP DP  RH WIND       PRES   REMARKS
CORNING          N/A     75  70  83 W5        30.00S
JONESBORO      CLOUDY    75  67  76 CALM      29.97F
NEWPORT        CLOUDY    77  69  76 VRB3      29.99S
WALNUT RIDGE   CLOUDY    75  64  69 CALM      29.99S
BLYTHEVILLE    CLOUDY    74  72  93 NW3       29.99S
NW BLYTHEVILLE LGT RAIN  73  68  83 NW5       29.98F
$$

ARZ022-023-033-042-044-311700-
CENTRAL ARKANSAS

CITY           SKY/WX    TMP DP  RH WIND       PRES   REMARKS
LITTLE ROCK    CLOUDY    76  68  76 E6        29.96F
N LITTLE ROCK    N/A     73  69  87 E6        29.95F
JACKSONVILLE   CLOUDY    76  70  82 E6        29.96S
SEARCY         CLOUDY    73  70  88 CALM      29.99S
HOT SPRINGS    PTSUNNY   76  68  76 CALM      29.96S
RUSSELLVILLE   CLOUDY    72  65  78 E3        29.96F
CLINTON        CLOUDY    73  68  83 CALM      29.98F
$$

ARZ036-311700-
EAST ARKANSAS

CITY           SKY/WX    TMP DP  RH WIND       PRES   REMARKS
WEST MEMPHIS   CLOUDY    75  68  78 SE5       29.96F
$$

ARZ050-053-066-070-073-311700-
SOUTHWEST ARKANSAS

CITY           SKY/WX    TMP DP  RH WIND       PRES   REMARKS
ARKADELPHIA    FAIR      78  71  79 CALM      29.95F
CAMDEN         MOSUNNY   81  68  65 SE3       29.95S
TEXARKANA      PTSUNNY   79  70  74 CALM      29.93S
EL DORADO      PTSUNNY   79  71  76 E6        29.96S
DE QUEEN       MOSUNNY   75  70  84 CALM      29.91F
$$

ARZ056-057-069-311700-
SOUTHEAST ARKANSAS

CITY           SKY/WX    TMP DP  RH WIND       PRES   REMARKS
PINE BLUFF     PTSUNNY   75  68  78 SE3       29.96S
STUTTGART      CLOUDY    73  66  78 SE6       29.97S
MONTICELLO     CLOUDY    81  69  67 E6        29.96S

$$





USA.gov is the U.S. government's official web portal to all federal, state and local government web resources and services.